User: anonymous   Login
Location: Saddleback Butte
(34.6776°N, 117.8050°W)
Time: 12:34:54
(UTC-08:00)
Language:

Cosmos 1862 Rocket - Orbit

View from above orbital plane
View from above orbital plane
View from above satellite
View from above satellite

Ground track
Ground track

The orbit data is extracted from the following two-line orbital elements,

1 18153U 87055B   17057.97085892  .00000094  00000-0  85410-5 0  9997
2 18153  82.5003 207.9501 0023161  87.0376 273.3489 14.83163406602028
Epoch (UTC): 26 February 2017 23:18:02
Eccentricity: 0.0023161
inclination: 82.5003°
perigee height: 603 km
apogee height: 635 km
right ascension of ascending node: 207.9501°
argument of perigee: 87.0376°
revolutions per day: 14.83163406
mean anomaly at epoch: 273.3489°
orbit number at epoch: 60202

The dashed part of the orbit path shows where the satellite is in the earth's shadow,  

DLR